STARLINK-11294 [DTC] (61054 NORAD) Tracking and Keplerian Element Data

This shows tracking and keplerian element data for the satellite.

Feedback or suggestion? Click here.




ElementValue
Catalog61054
NameSTARLINK-11294 [DTC]
Epoch Orbit481
Epoch Day286.49684985
Epoch Year2024
RAAN321.3176
Inclination53.1543
Eccentricity0.0001196
Argument of Perigee57.5243
Mean Anonmoly302.5894
Mean Motion15.76748548
Decay Rate0.00040849
L11 61054U 24164E 24286.49684985 .00040849 00000+0 25216-3 0 9991
L22 61054 53.1543 321.3176 0001196 57.5243 302.5894 15.76748548 4814



Live tracking and technical data element details for STARLINK-11294 [DTC] (NORAD 61054). STARLINK-11294 [DTC] can be tracked NOW for your location showing map with azimuth and elevation plus other details from your city location.







IsCatalogInMostPopularTable: catalog: 61054, numindb: 23
Update: records affected: 1



GetName: 61054 STARLINK-11294 [DTC]

Hit Count: updated at: Wed, 04 Dec 2024 10:08:00 GMT